Simultaneous Nadir Overpasses (SNOs) Predictions

Prediction of SNOs near US between AQUA and NPP Satellite Orbit:

Table of predicted SNOs near US for the next 10.0 days since TLE Epoch: 6/14/2019
Index Date (AQUA) Time (AQUA) AQUA Lat,Lon Date (NPP) Time (NPP) NPP Lat,Lon Distance(km) Time Diff (sec)
1 06/15/2019 10:12:07 26.72,-124.99 06/15/2019 10:05:38 26.87,-125.72 74.92 389
2 06/18/2019 07:18:46 49.94, -75.97 06/18/2019 07:20:19 50.40, -78.19 165.71 93
3 06/18/2019 08:57:40 49.88,-100.72 06/18/2019 09:01:48 50.45,-103.54 210.52 248
4 06/20/2019 18:16:56 50.00, -80.17 06/20/2019 18:10:38 49.71, -81.80 120.86 378
5 06/20/2019 19:55:49 50.00,-104.89 06/20/2019 19:52:06 49.60,-107.12 166.10 223
6 06/20/2019 21:31:00 36.76,-125.00 06/20/2019 21:29:46 36.28,-127.63 241.57 74
7 06/23/2019 09:23:48 22.52,-113.64 06/23/2019 09:16:09 22.63,-114.13 51.76 459




NCC Satellite Simultaneous Nadir Overpasses (SNOs) Prediction Service
